Location: Eastchurch
(51.4000°N, 0.8667°E)
Time: 14:27:07
(UTC+00:00)

BREEZE-M DEB (TANK) - Pass Details

Date: 19 January 2026
Orbit: 304 x 12632 km, 49.7° (Epoch: 15 February)

Event Time Altitude Azimuth Distance (km) Brightness Sun altitude
Rises 19:14:51 0° 255° (WSW) 2,285 7.2 -26.1°
Reaches altitude 10° 19:16:13 10° 253° (WSW) 1,643 6.2 -26.3°
Enters shadow 19:19:10 70° 194° (SSW) 789 3.5 -26.8°
